Regional Weather Roundup
Issued by NWS

Home | Current Version | Previous Version | Text Only | Print | Product List | Glossary On
Versions: 1 2 3 4 5 6 7 8 9 10 11 12 13 14 15 16 17 18 19 20 21 22 23 24 25 26 27 28 29 30 31 32 33 34 35 36 37 38 39 40 41 42 43 44 45 46 47 48 49 50
000
ASUS43 KMPX 240901
RWRMN
WEATHER ROUNDUP FOR MINNESOTA
NATIONAL WEATHER SERVICE TWIN CITIES/CHANHASSEN MN
400 AM CDT MON JUL 24 2017


NOTE: "FAIR" INDICATES FEW OR NO CLOUDS BELOW 12,000 FEET WITH NO
SIGNIFICANT WEATHER AND/OR OBSTRUCTIONS TO VISIBILITY. N/A MEANS
CURRENT SKY AND/OR WEATHER CONDITIONS ARE NOT AVAILABLE.

MNZ060>063-068>070-241000-
   Twin Cities Metro

CITY           SKY/WX    TMP DP  RH WIND       PRES   REMARKS
TWIN CITIES    CLEAR     62  56  80 NE3       30.04S
ST PAUL        CLEAR     60  57  89 VRB3      30.04S
CRYSTAL        CLEAR     58  55  90 CALM      30.03S
BLAINE         CLEAR     57  55  94 CALM      30.04S
LAKEVILLE      CLEAR     54  54 100 CALM      30.04S
EDEN PRAIRIE   CLEAR     62  57  83 NE5       30.03S
SOUTH ST PAUL  CLEAR     61  56  83 CALM      30.04R
LAKE ELMO      FAIR      55  54  94 CALM      30.06R
$$
MNZ001>005-007-008-013>017-022>024-027-028-241000-
   Northwest Minnesota

CITY           SKY/WX    TMP DP  RH WIND       PRES   REMARKS
BEMIDJI        CLEAR     57  55  95 S5        30.04S
HALLOCK        CLEAR     61  59  94 SE8       29.92F
ROSEAU         CLEAR     59  54  82 S7        29.97F
WARROAD        CLEAR     59  55  88 S3        29.99S
CROOKSTON      CLEAR     59  57  94 S7        29.98S
FOSSTON        CLEAR     57  54  88 SE6       30.01F
DETROIT LAKES  CLEAR     63  59  88 SE7       30.03S
MOORHEAD       CLEAR     63  59  88 SE7       29.99F
PARK RAPIDS    PTCLDY    59  56  89 SE3       30.04S
MAHNOMEN       FAIR      59  56  91 SE6       30.01S
$$
MNZ006-009>011-018-025>026-241000-
   North Central Minnesota

CITY           SKY/WX    TMP DP  RH WIND       PRES   REMARKS
BAUDETTE       PTCLDY    58  56  93 S3        30.00S
FLAG ISLAND    CLEAR     66  61  82 CALM      29.96F HAZE
INTL FALLS     CLEAR     55  53  93 CALM      30.03S
WASKISH        CLEAR     57  55  94 CALM      30.02S
BIG FORK       FOG       50  48  93 CALM      30.05F VSB 1/2
LONGVILLE      CLEAR     52  52 100 CALM      30.05S FOG
GRAND RAPIDS   CLEAR     51  51 100 CALM      30.08S
CRANE LAKE     CLEAR     52  50  93 CALM      30.06S
ORR            CLEAR     55  52  88 CALM      30.03F
COOK           CLEAR     50  50 100 CALM      30.07S
WALKER         FAIR      58  58  98 S3        30.05S
$$
MNZ012-019>021-037-241000-
   Northeast Minnesota

CITY           SKY/WX    TMP DP  RH WIND       PRES   REMARKS
DULUTH         FOG       51  51 100 CALM      30.06S VSB 1/2
ELY            CLEAR     48  48 100 CALM      30.06S
HIBBING        FOG       45  45 100 CALM      30.07R VSB 1/2
EVELETH        FOG       46  44  91 CALM      30.08R VSB 1/4
DULUTH HARBOR  CLOUDY    59  55  88 CALM      30.07R
TWO HARBORS    CLEAR     48  45  87 CALM      30.05R HAZE
GRAND MARAIS     N/A     51  50  96 CALM      30.05R
G MARAIS ARPRT CLEAR     45  43  93 CALM      30.08S
$$
MNZ029>031-032-039>041-046>048-054>057-064-241000-
   West Central Minnesota

CITY           SKY/WX    TMP DP  RH WIND       PRES   REMARKS
FERGUS FALLS   CLEAR     63  63 100 S7        30.01S
WHEATON        CLEAR     57  54  88 SE6       30.02F
MORRIS         CLEAR     59  57  94 S5        30.02R
ALEXANDRIA     CLEAR     60  57  89 SE7       30.05S
ELBOW LAKE     FAIR      61  59  95 E6        30.03S
WADENA         CLEAR     55  55 100 CALM      30.04S
GLENWOOD       CLEAR     57  55  94 SE5       30.04F
APPLETON       CLEAR     63  57  82 SE5       30.02R
BENSON         CLEAR     61  57  88 SE3       30.04S
ORTONVILLE     CLEAR     59  55  88 SE5       30.02R
MADISON        CLEAR     59  59 100 SE3       30.02S
WILLMAR        FAIR      59  57  94 E5        30.05S
$$
MNZ033>034-036-042>043-049>051-058-059-241000-
   Central Minnesota

CITY           SKY/WX    TMP DP  RH WIND       PRES   REMARKS
ST CLOUD       CLEAR     53  53 100 NE3       30.04S FOG
SAUK CENTRE    CLOUDY    53  53  99 CALM      30.05S FOG
PAYNESVILLE    CLEAR     55  55  97 CALM      30.05S
AITKIN         MOCLDY    48  46  93 CALM      30.05S FOG
PINE RIVER     FOG       54  54 100 CALM      30.08S VSB 3/4
BRAINERD       CLEAR     55  54  96 CALM      30.05S
STAPLES        CLEAR     55  54  94 CALM      30.05S
LONG PRAIRIE   FAIR      55  55 100 CALM      30.05S
LITTLE FALLS   CLEAR     52  50  93 CALM      30.05S FOG
LITCHFIELD     CLEAR     59  59 100 CALM      30.04F
BUFFALO        CLEAR     56  53  90 CALM      30.05S
MAPLE LAKE     CLEAR     55  55  99 CALM      30.05S FOG
HUTCHINSON       N/A     55  55  99 CALM      30.05S FOG
$$
MNZ037-044-045-052-053-241000-
   East Central Minnesota

CITY           SKY/WX    TMP DP  RH WIND       PRES   REMARKS
PRINCETON      CLEAR     55  54  94 CALM      30.05S FOG
MORA             N/A     50  50 100 CALM      30.07S FOG
CAMBRIDGE      CLEAR     55  52  88 CALM      30.04S
RUSH CITY      PTCLDY    53  52  95 CALM      30.06S FOG
MOOSE LAKE     FOG       54  54 100 CALM      30.06R VSB 1/2
HINCKLEY       FOG       50  50 100 CALM      30.07R VSB 1/2
CLOQUET        FOG       55  54  94 CALM      30.07R VSB 1/4
MCGREGOR       CLOUDY    50  50 100 CALM      30.07S VSB<1/4
$$
MNZ071>073-080-081-089-090-097-098-241000-
   Southwest Minnesota

CITY           SKY/WX    TMP DP  RH WIND       PRES   REMARKS
MONTEVIDEO     CLEAR     57  55  94 S5        30.03R
GRANITE FALLS  CLEAR     61  58  90 E5        30.04S
CANBY          CLEAR     57  55  95 CALM      30.04R
MARSHALL       CLEAR     59  58  96 CALM      30.03S
REDWOOD FALLS  CLEAR     61  57  87 SE5       30.03S
OLIVIA         CLEAR     59  55  88 E7        30.03S
PIPESTONE      CLEAR     61  55  82 CALM      30.03S
WINDOM         CLEAR     59  57  94 E5        30.04S
WORTHINGTON    CLEAR     57  55  93 CALM      30.04S
JACKSON        CLEAR     55  55 100 CALM      30.04S
SLAYTON        HVY RAIN  57  51  79 CALM      30.04S
$$
MNZ065>067-074>077-082>085-091>093-241000-
   South Central Minnesota

CITY           SKY/WX    TMP DP  RH WIND       PRES   REMARKS
MANKATO        CLEAR     59  57  93 E5        30.04S
NEW ULM        CLEAR     61  57  88 CALM      30.03F
ST JAMES       CLEAR     59  57  94 CALM      30.04S
FAIRMONT       CLEAR     58  57  97 CALM      30.04R
GLENCOE        CLEAR     57  58 100 CALM      30.04R FOG
FARIBAULT      CLEAR     55  55 100 CALM      30.04S FOG
OWATONNA         N/A     55  55 100 CALM      30.03F FOG
WASECA         CLEAR     55  54  94 N3        30.04S
ALBERT LEA     CLEAR     57  55  94 CALM      30.03S
$$
MNZ078>079-086>088-094>096-241000-
   Southeast Minnesota

CITY           SKY/WX    TMP DP  RH WIND       PRES   REMARKS
ROCHESTER      MOCLDY    58  57  97 N5        30.03S
RED WING       CLOUDY    63  57  82 CALM      30.03S
STANTON          N/A     55  54  94 CALM      30.02F FOG
DODGE CENTER   CLEAR     57  55  94 N5        30.04S
WINONA         PTCLDY    61  59  94 CALM      30.02S
AUSTIN         CLEAR     57  55  94 CALM      30.03S
PRESTON        PTCLDY    56  55  95 N3        30.03R
$$
ABBREVIATIONS USED IN REMARKS
   TC - TEMPERATURES IN CELSIUS
  WCI - WIND CHILL INDEX
   HX - HEAT INDEX
  VSB - VISIBILITY
$$



USA.gov is the U.S. government's official web portal to all federal, state and local government web resources and services.